Weather History for Melfa, VA

Change the Weather History Date:

Friday, April 25, 2014

  Actual Average (KWAL) Record (KWAL)
Temperature  
Mean Temperature 50 °F 57 °F  
Max Temperature 62 °F 66 °F 85 °F (2009)
Min Temperature 39 °F 48 °F 37 °F (1999)
Degree Days  
Heating Degree Days 14    
Month to date heating degree days  
Since 1 July heating degree days  
Cooling Degree Days 0    
Month to date cooling degree days  
Year to date cooling degree days  
Moisture  
Dew Point 40 °F    
Average Humidity 63    
Maximum Humidity 88    
Minimum Humidity 26    
Precipitation  
Precipitation 1.36 in 0.09 in 0.90 in (2014)
Month to date precipitation 2.63  
Year to date precipitation 12.43  
Sea Level Pressure  
Sea Level Pressure 29.92 in    
Wind  
Wind Speed 6 mph (SSE)    
Max Wind Speed 20 mph    
Max Gust Speed 26 mph    
Visibility 9 miles    
Events Rain , Thunderstorm    
T = Trace of Precipitation, MM = Missing Value Source: NWS Daily Summary

Daily Weather History Graph

Daily Weather History Graph

Search for Another Location

Airport:

Trip Planner

Search our weather history database for the weather conditions in past years. The results will help you decide how hot, cold, wet, or windy it might be!

Date:

Astronomy

Apr. 25, 2014 Rise Set
Actual Time 6:14 AM EDT 7:47 PM EDT
Civil Twilight 5:47 AM EDT 8:15 PM EDT
Nautical Twilight 5:13 AM EDT 8:48 PM EDT
Astronomical Twilight 4:38 AM EDT 9:24 PM EDT
Moon 3:56 AM EDT (4/25) 4:11 PM EDT (4/25)
Length of Visible Light 14h 28m
Length of Day
13h 32m
Waning Crescent, 15% of the Moon is Illuminated
Apr 25
Waning Crescent
Apr 29
New
May 6
First Quarter
May 14
Full
May 21
Last Quarter

Hourly Weather History & Observations

Time (EDT) Temp. Windchill Dew Point Humidity Pressure Visibility Wind Dir Wind Speed Gust Speed Precip Events Conditions
12:15 AM 42.8 °F - 32.0 °F 66% 30.04 in 10.0 mi Calm Calm - N/A   Clear
12:35 AM 42.8 °F 41.1 °F 32.0 °F 66% 30.04 in 10.0 mi South 3.5 mph - N/A   Clear
12:55 AM 41.0 °F 39.0 °F 32.0 °F 70% 30.04 in 10.0 mi South 3.5 mph - N/A   Clear
1:15 AM 41.0 °F 39.0 °F 32.0 °F 70% 30.04 in 10.0 mi SSW 3.5 mph - N/A   Clear
1:35 AM 42.8 °F 40.1 °F 32.0 °F 66% 30.04 in 10.0 mi South 4.6 mph - N/A   Clear
1:55 AM 41.0 °F 39.0 °F 32.0 °F 70% 30.03 in 10.0 mi South 3.5 mph - N/A   Clear
2:15 AM 41.0 °F 37.1 °F 32.0 °F 70% 30.02 in 10.0 mi South 5.8 mph - N/A   Clear
2:35 AM 41.0 °F 37.1 °F 33.8 °F 76% 30.02 in 10.0 mi SSW 5.8 mph - N/A   Clear
2:55 AM 42.8 °F 40.1 °F 33.8 °F 70% 30.01 in 10.0 mi South 4.6 mph - N/A   Clear
3:15 AM 42.8 °F 41.1 °F 33.8 °F 70% 30.01 in 10.0 mi South 3.5 mph - N/A   Clear
3:35 AM 41.0 °F 39.0 °F 33.8 °F 76% 30.02 in 10.0 mi SSW 3.5 mph - N/A   Clear
3:55 AM 41.0 °F 38.0 °F 35.6 °F 81% 30.02 in 10.0 mi SW 4.6 mph - N/A   Clear
4:15 AM 41.0 °F 38.0 °F 35.6 °F 81% 30.02 in 10.0 mi SSW 4.6 mph - N/A   Clear
4:35 AM 41.0 °F 39.0 °F 35.6 °F 81% 30.02 in 10.0 mi SW 3.5 mph - N/A   Clear
4:55 AM 41.0 °F 38.0 °F 35.6 °F 81% 30.03 in 10.0 mi SSW 4.6 mph - N/A   Clear
5:15 AM 41.0 °F 39.0 °F 35.6 °F 81% 30.03 in 10.0 mi South 3.5 mph - N/A   Clear
5:35 AM 41.0 °F 38.0 °F 35.6 °F 81% 30.03 in 10.0 mi South 4.6 mph - N/A   Clear
5:55 AM 41.0 °F 38.0 °F 35.6 °F 81% 30.02 in 10.0 mi South 4.6 mph - N/A   Clear
6:15 AM 39.2 °F 37.0 °F 33.8 °F 81% 30.03 in 10.0 mi South 3.5 mph - N/A   Clear
6:35 AM 39.2 °F 35.0 °F 33.8 °F 81% 30.02 in 10.0 mi SSE 5.8 mph - N/A   Clear
6:55 AM 41.0 °F 37.1 °F 35.6 °F 81% 30.02 in 10.0 mi SSE 5.8 mph - N/A   Clear
7:15 AM 44.6 °F 42.2 °F 39.2 °F 81% 30.03 in 10.0 mi South 4.6 mph - N/A   Clear
7:35 AM 46.4 °F 45.2 °F 42.8 °F 87% 30.03 in 10.0 mi South 3.5 mph - N/A   Clear
7:55 AM 51.8 °F - 44.6 °F 76% 30.03 in 10.0 mi South 3.5 mph - N/A   Clear
8:15 AM 55.4 °F - 42.8 °F 63% 30.03 in 10.0 mi Calm Calm - N/A   Clear
8:35 AM 57.2 °F - 41.0 °F 55% 30.03 in 10.0 mi South 6.9 mph - N/A   Clear
8:55 AM 59.0 °F - 41.0 °F 51% 30.02 in 10.0 mi SSE 5.8 mph - N/A   Clear
9:15 AM 60.8 °F - 33.8 °F 36% 30.01 in 10.0 mi SSE 9.2 mph - N/A   Clear
9:35 AM 62.6 °F - 26.6 °F 26% 30.01 in 10.0 mi SE 9.2 mph - N/A   Clear
9:55 AM 60.8 °F - 42.8 °F 52% 30.01 in 10.0 mi East 8.1 mph - N/A   Clear
10:15 AM 60.8 °F - 39.2 °F 45% 30.01 in 10.0 mi SE 9.2 mph - N/A   Clear
10:35 AM 59.0 °F - 33.8 °F 39% 30.00 in 10.0 mi ESE 10.4 mph 16.1 mph N/A   Clear
10:55 AM 59.0 °F - 33.8 °F 39% 30.01 in 10.0 mi ESE 8.1 mph - N/A   Clear
11:15 AM 59.0 °F - 32.0 °F 36% 30.01 in 10.0 mi ESE 9.2 mph 16.1 mph N/A   Clear
11:35 AM 59.0 °F - 32.0 °F 36% 30.00 in 10.0 mi ESE 8.1 mph 17.3 mph N/A   Clear
11:55 AM 60.8 °F - 28.4 °F 29% 29.99 in 10.0 mi ESE 8.1 mph 17.3 mph N/A   Scattered Clouds
12:15 PM 60.8 °F - 30.2 °F 31% 29.99 in 10.0 mi ESE 6.9 mph - N/A   Scattered Clouds
12:35 PM 62.6 °F - 30.2 °F 30% 29.97 in 10.0 mi ESE 9.2 mph 17.3 mph N/A   Scattered Clouds
12:55 PM 60.8 °F - 30.2 °F 31% 29.96 in 10.0 mi SE 11.5 mph 17.3 mph N/A   Clear
1:15 PM 60.8 °F - 28.4 °F 29% 29.95 in 10.0 mi SE 10.4 mph 21.9 mph N/A   Clear
1:35 PM 62.6 °F - 30.2 °F 30% 29.94 in 10.0 mi SE 19.6 mph 26.5 mph N/A   Clear
1:55 PM 62.6 °F - 32.0 °F 32% 29.94 in 10.0 mi SE 11.5 mph 18.4 mph N/A   Clear
2:15 PM 62.6 °F - 32.0 °F 32% 29.92 in 10.0 mi SE 13.8 mph 20.7 mph N/A   Clear
2:35 PM 60.8 °F - 33.8 °F 36% 29.90 in 10.0 mi SE 11.5 mph 25.3 mph N/A   Clear
2:55 PM 62.6 °F - 35.6 °F 37% 29.89 in 10.0 mi SSE 15.0 mph 25.3 mph N/A   Clear
3:15 PM 62.6 °F - 35.6 °F 37% 29.88 in 10.0 mi SE 13.8 mph 23.0 mph N/A   Scattered Clouds
3:35 PM 62.6 °F - 35.6 °F 37% 29.85 in 10.0 mi SE 16.1 mph 20.7 mph N/A   Mostly Cloudy
3:55 PM 60.8 °F - 35.6 °F 39% 29.84 in 10.0 mi SE 13.8 mph 21.9 mph N/A   Scattered Clouds
4:15 PM 62.6 °F - 37.4 °F 39% 29.82 in 10.0 mi SE 18.4 mph 24.2 mph N/A   Clear
4:35 PM 62.6 °F - 39.2 °F 42% 29.81 in 10.0 mi SE 13.8 mph 24.2 mph N/A   Scattered Clouds
4:55 PM 60.8 °F - 41.0 °F 48% 29.81 in 10.0 mi SE 16.1 mph 26.5 mph N/A   Overcast
5:15 PM 59.0 °F - 41.0 °F 51% 29.81 in 10.0 mi SE 15.0 mph 24.2 mph N/A   Scattered Clouds
5:35 PM 59.0 °F - 42.8 °F 55% 29.79 in 10.0 mi SE 13.8 mph 19.6 mph N/A   Scattered Clouds
5:55 PM 59.0 °F - 44.6 °F 59% 29.78 in 10.0 mi SSE 12.7 mph 20.7 mph N/A   Mostly Cloudy
6:15 PM 59.0 °F - 46.4 °F 63% 29.78 in 10.0 mi SSE 11.5 mph 23.0 mph N/A Rain Light Rain
6:35 PM 55.4 °F - 50.0 °F 82% 29.77 in 10.0 mi SSE 12.7 mph 20.7 mph N/A Rain Light Rain
6:55 PM 55.4 °F - 50.0 °F 82% 29.77 in 7.0 mi SSE 10.4 mph 17.3 mph 0.02 in Rain Rain
7:15 PM 55.4 °F - 51.8 °F 88% 29.77 in 5.0 mi SSE 9.2 mph 17.3 mph 0.03 in Rain Rain
7:35 PM 55.4 °F - 51.8 °F 88% 29.74 in 5.0 mi SSE 13.8 mph 23.0 mph 0.09 in Rain , Thunderstorm Thunderstorms and Rain
7:55 PM 55.4 °F - 51.8 °F 88% 29.75 in 5.0 mi South 12.7 mph 24.2 mph 0.15 in Rain , Thunderstorm Rain
8:15 PM 57.2 °F - 53.6 °F 88% 29.74 in 5.0 mi SSE 15.0 mph 23.0 mph 0.06 in Rain , Thunderstorm Rain
8:35 PM 57.2 °F - 53.6 °F 88% 29.73 in 3.0 mi SSE 18.4 mph 26.5 mph 0.13 in Rain , Thunderstorm Heavy Thunderstorms and Rain
8:55 PM 59.0 °F - 55.4 °F 88% 29.74 in 2.5 mi SSE 11.5 mph 19.6 mph 0.29 in Rain , Thunderstorm Heavy Thunderstorms and Rain
9:15 PM 59.0 °F - 55.4 °F 88% 29.71 in 3.0 mi East 8.1 mph - 0.15 in Rain , Thunderstorm Heavy Thunderstorms and Rain
9:35 PM 59.0 °F - 55.4 °F 88% 29.72 in 0.8 mi East 5.8 mph - 0.74 in Rain , Thunderstorm Heavy Thunderstorms and Rain
9:55 PM 59.0 °F - 55.4 °F 88% 29.71 in 7.0 mi East 5.8 mph - 0.82 in Rain , Thunderstorm Thunderstorms and Rain
10:15 PM 59.0 °F - 55.4 °F 88% 29.70 in 5.0 mi ENE 4.6 mph - 0.03 in Rain , Thunderstorm Rain
10:35 PM 59.0 °F - 55.4 °F 88% 29.68 in 5.0 mi East 4.6 mph - 0.06 in Rain , Thunderstorm Light Thunderstorms and Rain
10:55 PM 59.0 °F - 55.4 °F 88% 29.68 in 5.0 mi East 3.5 mph - 0.07 in Rain , Thunderstorm Light Thunderstorms and Rain
11:15 PM 59.0 °F - 55.4 °F 88% 29.68 in 5.0 mi Calm Calm - 0.01 in Rain Light Rain
11:35 PM 59.0 °F - 55.4 °F 88% 29.68 in 7.0 mi Calm Calm - 0.01 in Rain Light Rain